TimeEDT,TemperatureF,Dew PointF,Humidity,Sea Level PressureIn,VisibilityMPH,Wind Direction,Wind SpeedMPH,Gust SpeedMPH,PrecipitationIn,Events,Conditions,WindDirDegrees,DateUTC
12:53 AM,79.0,64.0,60,30.08,10.0,NNE,15.0,21.9,N/A,,Clear,30,2012-10-13 04:53:00
1:53 AM,79.0,66.0,64,30.07,10.0,NNE,11.5,20.7,N/A,,Clear,30,2012-10-13 05:53:00
2:53 AM,79.0,66.0,64,30.05,10.0,NNE,15.0,20.7,N/A,,Clear,30,2012-10-13 06:53:00
3:53 AM,78.1,66.9,68,30.03,10.0,NNE,13.8,20.7,N/A,,Clear,30,2012-10-13 07:53:00
4:53 AM,78.1,66.9,68,30.03,10.0,NNE,15.0,23.0,N/A,,Clear,30,2012-10-13 08:53:00
5:53 AM,78.1,66.9,68,30.04,10.0,NE,15.0,23.0,N/A,,Clear,40,2012-10-13 09:53:00
6:53 AM,78.1,66.9,68,30.05,10.0,NNE,16.1,23.0,N/A,,Clear,30,2012-10-13 10:53:00
7:53 AM,79.0,68.0,69,30.06,10.0,NNE,16.1,23.0,N/A,,Clear,20,2012-10-13 11:53:00
8:53 AM,80.1,68.0,67,30.07,10.0,NNE,15.0,25.3,N/A,,Partly Cloudy,30,2012-10-13 12:53:00
9:53 AM,82.0,69.1,65,30.08,10.0,NE,17.3,26.5,N/A,,Partly Cloudy,40,2012-10-13 13:53:00
10:53 AM,81.0,70.0,69,30.09,10.0,NE,16.1,25.3,N/A,,Mostly Cloudy,40,2012-10-13 14:53:00
11:53 AM,82.9,70.0,65,30.08,10.0,NE,16.1,24.2,N/A,,Mostly Cloudy,40,2012-10-13 15:53:00
12:53 PM,82.0,71.1,69,30.06,10.0,NE,15.0,20.7,N/A,,Mostly Cloudy,40,2012-10-13 16:53:00
1:12 PM,80.6,71.6,74,30.05,10.0,NE,10.4,20.7,N/A,,Mostly Cloudy,40,2012-10-13 17:12:00
1:24 PM,82.4,71.6,70,30.04,10.0,NE,11.5,-,N/A,,Mostly Cloudy,40,2012-10-13 17:24:00
1:53 PM,84.0,71.1,65,30.03,10.0,NE,15.0,19.6,N/A,,Scattered Clouds,40,2012-10-13 17:53:00
2:53 PM,84.0,71.1,65,30.00,10.0,NE,12.7,20.7,N/A,,Mostly Cloudy,40,2012-10-13 18:53:00
3:53 PM,86.0,66.9,53,29.99,10.0,ENE,16.1,26.5,N/A,,Scattered Clouds,70,2012-10-13 19:53:00
4:53 PM,84.9,66.9,55,29.99,10.0,ENE,18.4,26.5,N/A,,Scattered Clouds,60,2012-10-13 20:53:00
5:53 PM,84.0,68.0,58,29.99,10.0,ENE,16.1,25.3,N/A,,Scattered Clouds,60,2012-10-13 21:53:00
6:53 PM,82.0,66.9,60,30.00,10.0,ENE,15.0,24.2,N/A,,Scattered Clouds,60,2012-10-13 22:53:00
7:53 PM,81.0,68.0,65,30.01,10.0,ENE,9.2,20.7,N/A,,Scattered Clouds,60,2012-10-13 23:53:00
8:53 PM,81.0,68.0,65,30.03,10.0,NE,11.5,18.4,N/A,,Partly Cloudy,50,2012-10-14 00:53:00
9:53 PM,82.0,68.0,62,30.04,10.0,ENE,12.7,20.7,N/A,,Scattered Clouds,60,2012-10-14 01:53:00
10:53 PM,81.0,69.1,67,30.03,10.0,NE,11.5,20.7,N/A,,Partly Cloudy,50,2012-10-14 02:53:00
11:53 PM,80.1,69.1,69,30.02,10.0,NE,12.7,20.7,N/A,,Mostly Cloudy,50,2012-10-14 03:53:00